KT4FD Weather Reports


time (UTC)temp
F
wind
direction
speed
knots
gust
knots
rain 1hr
in
rain 24hr
in
rain mn
in
humidity
%
barometer
mb
20260901022003 71 280 0.0 0.0 0.00 0.04 0.04 91 1021.5
20260901021003 71 280 0.0 0.0 0.00 0.04 0.04 91 1021.3
20260901020003 71 280 0.0 0.0 0.00 0.04 0.04 91 1021.1
20260901015004 71 280 0.0 0.0 0.00 0.04 0.04 90 1021.1
20260901014003 72 280 0.0 0.0 0.00 0.04 0.04 90 1021.0
20260901013003 72 280 0.0 0.0 0.00 0.04 0.04 90 1020.8
20260901012003 72 280 0.0 0.0 0.00 0.04 0.04 90 1020.6
20260901011003 72 280 0.0 0.9 0.00 0.04 0.04 90 1020.6
20260901010003 72 280 0.0 0.0 0.00 0.04 0.04 90 1020.5
20260901005003 73 280 0.0 0.0 0.00 0.04 0.04 90 1020.5
20260901004004 73 280 0.0 0.0 0.00 0.04 0.04 90 1020.3
20260901003003 74 280 0.0 0.0 0.00 0.04 0.04 90 1020.4
20260831232004 76 294 0.0 1.7 0.01 0.04 0.04 90 1020.1
20260831231003 76 294 0.9 2.6 0.02 0.02 0.02 90 1020.1
20260831230004 76 294 0.0 2.6 0.02 0.02 0.02 90 1020.2
20260831225004 75 294 0.9 1.7 0.02 0.02 0.02 90 1020.3
20260831224003 75 294 0.0 2.6 0.02 0.02 0.02 90 1020.3
20260831223003 75 294 0.9 2.6 0.02 0.02 0.02 90 1020.3
20260831211004 90 293 2.6 4.3 0.00 0.00 0.00 59 1020.6
20260831210004 90 293 1.7 2.6 0.00 0.00 0.00 58 1020.6
20260831205004 90 293 1.7 2.6 0.00 0.00 0.00 57 1020.6
20260831204004 89 293 1.7 6.1 0.00 0.00 0.00 59 1020.8
20260831203004 88 293 2.6 6.1 0.00 0.00 0.00 61 1020.8
20260831181003 85 273 0.9 2.6 0.00 0.00 0.00 67 1022.0
20260831180003 85 273 0.9 2.6 0.00 0.00 0.00 69 1022.2
20260831175003 85 273 0.9 5.2 0.00 0.00 0.00 66 1022.2
20260831174003 85 273 0.9 2.6 0.00 0.00 0.00 67 1022.2
20260831173003 85 273 2.6 6.1 0.00 0.00 0.00 66 1022.4
20260831172004 85 273 1.7 2.6 0.00 0.00 0.00 70 1022.4
20260831171004 85 273 1.7 5.2 0.00 0.00 0.00 68 1022.6
20260831151003 78 355 0.0 0.0 0.00 0.00 0.00 84 1023.4
20260831150003 78 355 0.0 0.0 0.00 0.00 0.00 85 1023.4
20260831145003 77 355 0.0 0.0 0.00 0.00 0.00 85 1023.4
20260831144004 77 355 0.0 2.6 0.00 0.00 0.00 86 1023.5
20260831143003 77 355 0.0 2.6 0.00 0.00 0.00 85 1023.3
20260831142003 77 355 0.9 4.3 0.00 0.00 0.00 86 1023.3
20260831141004 76 355 0.0 2.6 0.00 0.00 0.00 86 1023.1
20260831140003 75 355 0.0 1.7 0.00 0.00 0.00 88 1023.1
20260831135004 74 355 0.0 0.0 0.00 0.00 0.00 90 1023.1
20260831134003 73 355 0.0 0.0 0.00 0.00 0.00 91 1023.1
20260831133004 72 355 0.0 0.9 0.00 0.00 0.00 91 1023.2
20260831132003 72 355 0.0 1.7 0.00 0.00 0.00 90 1023.2
20260831131004 71 350 0.0 0.9 0.00 0.00 0.00 91 1023.4
20260831130004 70 351 0.0 1.7 0.00 0.00 0.00 91 1023.4
20260831125004 69 351 0.0 0.9 0.00 0.00 0.00 91 1023.1
20260831124004 69 351 0.0 0.0 0.00 0.00 0.00 91 1023.1
20260831123003 68 351 0.0 0.0 0.00 0.00 0.00 91 1023.0
20260831122004 68 351 0.0 0.0 0.00 0.00 0.00 91 1022.9
20260831111004 67 351 0.0 0.0 0.00 0.00 0.00 91 1022.5
20260831110003 67 351 0.0 0.9 0.00 0.00 0.00 91 1022.4
20260831105004 67 351 0.0 0.0 0.00 0.00 0.00 91 1022.1
20260831104003 67 351 0.0 0.0 0.00 0.00 0.00 92 1022.1
20260831103003 67 351 0.0 0.0 0.00 0.00 0.00 91 1022.1
20260831102004 68 351 0.0 0.0 0.00 0.00 0.00 91 1022.0
20260831091003 68 350 0.0 0.0 0.00 0.00 0.00 91 1022.0
20260831090004 68 350 0.0 0.0 0.00 0.00 0.00 92 1022.0
20260831085004 68 350 0.0 0.0 0.00 0.00 0.00 91 1021.8
20260831084004 68 351 0.0 0.0 0.00 0.00 0.00 91 1021.9
20260831083003 68 351 0.0 0.0 0.00 0.00 0.00 91 1021.7
20260831082004 69 351 0.0 0.0 0.00 0.00 0.00 91 1021.6